OPS 4682 DEB, 38434

Orbit data source: Space-Track

OPS 4682 DEB, 38434 is space debris in LEO originally from a launch on Sat, 03 Apr 1965 UTC launched from the Air Force Western Test Range (AFWTR). Debris objects in space refer to the collection of defunct objects orbiting the Earth. Examples of debris include non-operational satellites, rocket bodies, and fragments generated from explosions, collisions, or faulty payload assembly.

Loading next visibility...
Identifier
38434, 1965-027EP
Orbit
LEO
Country
Flag of USUS
Related business
Manufacturer
Unknown
Mission
Spacecraft
Bus & Motor
Unknown
Mass
Unknown
Launch date (UTC)
1965-04-03 (61 years ago)
Launch vehicle
Unknown
Launch site
Air Force Western Test Range (AFWTR)
Object type
Payload
Rocket body
Debris
Shape & HBR
Unknown shape, 0.1 m
Radar Cross Section
Small (<0.1 m²)

Expand to show TLE details & history
Last TLE update: 2 days ago

TLE from 2 days ago
0 OPS 4682 DEB
1 38434U 65027EP  26133.33699744  .00000620  00000-0  21103-2 0  9999
2 38434  90.2442   5.1778 0030518 297.7458  62.0569 12.97375908657997
Epoch: 2026-05-13T08:05Z
TLE epoch observation values (Epoch: 2026-05-13T08:05:16.578Z)
Latitude
0.00001°
Longitude
12.76025°
Altitude
1,264.378 km
Speed
7.228 km/s
True Right ascension
00h 20m 42s
True Declination
0° 00' 00"
Sunlit
Object was in daylight at epoch
Visualization orbit readout
Latitude
Unknown
Longitude
Unknown
Altitude
Unknown
Speed
Unknown
Apparent Right ascension
Unknown
Apparent Declination
Unknown
Sunlit
N/A
Visualization observer readout
Local Sidereal Time
19:47:09
Azimuth
Unknown
Elevation
Unknown
Doppler factor
Unknown
Orbital elements
Apogee altitude
1,292.855 km
Perigee altitude
1,246.177 km
Semi-major axis
7,647.653 km
Eccentricity
0.00305
Inclination
90.2442°
RAAN
5.1778°
Arg. of periapsis
297.7458°
True anomaly
62.36639°
Mean anomaly
62.0569°
Eccentric anomaly
62.21159°
Mean motion
3.24527 °/min
Orbital period
110.93 mins
BSTAR
0.0021103
Loading maneuver chart data...
Computing Atmospheric mass density...
Loading historical data...
Loading historical data...
Loading historical data...
Loading historical data...
Loading historical data...
Loading historical data...
Loading historical data...

Documentation

Showing up to 5 results
|